Regional Weather Roundup
Issued by NWS Columbia, SC

Home | Current Version | Previous Version | Text Only | Print | Product List | Glossary On
Versions: 1 2 3 4 5 6 7 8 9 10 11 12 13 14 15 16 17 18 19 20 21 22 23 24 25 26 27 28
000
ASUS42 KCAE 011510
RWRCAE
REGIONAL WEATHER ROUNDUP
NATIONAL WEATHER SERVICE COLUMBIA SC
1100 AM EDT SUN MAY 01 2016

NOTE: "FAIR" INDICATES FEW OR NO CLOUDS BELOW 12,000 FEET WITH NO
SIGNIFICANT WEATHER AND/OR OBSTRUCTIONS TO VISIBILITY.

NOT ALL STATIONS ARE QUALITY CONTROLLED BY THE NATIONAL
WEATHER SERVICE. USE DATA WITH CAUTION...ESPECIALLY
DEWPOINT OBSERVATIONS.

SCZ001>056-GAZ040-063>065-077-011600-
...UPSTATE SOUTH CAROLINA...

CITY           SKY/WX    TMP DP  RH WIND       PRES   REMARKS
ANDERSON       CLOUDY    74  66  76 W12       30.05R
LIBERTY        CLOUDY    70  66  89 SW6       30.05S
SPARTANBURG    CLOUDY    66  63  88 CALM      30.06S
CLEMSON        CLOUDY    74  67  78 W5        30.06S
GREENVILLE     CLOUDY    71  66  84 S7        30.07R
GREENWOOD      CLOUDY    75  67  76 SW9       30.07S
GREER          CLOUDY    71  67  87 S5        30.05S
ROCK HILL        N/A    N/A N/A N/A MISG      30.06F
CHESTER        RAIN      64  64 100 CALM      30.09R
LAURENS        HVY RAIN  68  68 100 CALM      30.06R


...CENTRAL SOUTH CAROLINA...

CITY           SKY/WX    TMP DP  RH WIND       PRES   REMARKS
COLUMBIA APT   PTSUNNY   79  71  76 S10G20    30.05S
COLUMBIA OWENS CLOUDY    75  70  84 S8        30.07S
MCENTIRE ANGB  CLOUDY    75  70  83 S9        30.07S
ORANGEBURG     PTSUNNY   80  69  69 S14G20    30.07S
SUMTER SHAW    CLOUDY    74  68  81 S10       30.05S
NEWBERRY       CLOUDY    73  70  88 SW10      30.08F
AIKEN          PTSUNNY   77  68  73 SW9G17    30.10R
BARNWELL       PTSUNNY   82  72  69 S10G18    30.07S
CAMDEN         FAIR      70  68  94 SE6G12    30.08S
LANCASTER      CLOUDY    64  64 100 SE6       30.08S
WINNSBORO      TSTM      70  68  94 S6        30.06R


...EASTERN AND COASTAL SOUTH CAROLINA...

CITY           SKY/WX    TMP DP  RH WIND       PRES   REMARKS
MYRTLE BEACH   PTSUNNY   79  63  57 S12       30.13R
N MYRTLE BCH   CLOUDY    75  66  73 S8        30.12R
CONWAY         CLOUDY    73  64  73 S9        30.11S
MARION         DRIZZLE   72  66  83 SE5       30.10S
HARTSVILLE     CLOUDY   N/A N/A N/A SE6       30.09S
FLORENCE       LGT RAIN  72  67  84 E3        30.10S
CHARLESTON APT PTSUNNY   80  67  64 S15       30.09R
MOUNT PLEASANT FAIR      79  70  73 S16       30.09F
WALTERBORO     CLOUDY    81  70  69 S7        30.09R
BEAUFORT       PTSUNNY   81  70  69 S9G21     30.08S


...EASTERN GEORGIA...

CITY           SKY/WX    TMP DP  RH WIND       PRES   REMARKS
AUGUSTA BUSH F PTSUNNY   79  69  71 SW8       30.05R
AUGUSTA DANIEL PTSUNNY   81  67  62 S8        30.07R
THOMSON        MOSUNNY   81  72  75 S6        30.10S
WASHINGTON     PTSUNNY   77  70  78 CALM      30.06S
CLAXTON        PTSUNNY   80  70  71 SE7       30.08R
SYLVANIA       PTSUNNY   81  70  70 SW8       30.09R
STATESBORO     CLOUDY    82  72  72 SW10      30.08R
SAVANNAH       PTSUNNY   81  66  60 S10       30.08S


...SOUTHERN NORTH CAROLINA...

CITY           SKY/WX    TMP DP  RH WIND       PRES   REMARKS
CHARLOTTE      LGT RAIN  68  65  90 S12       30.07S
MONROE         LGT RAIN  64  62  93 VRB3      30.06F
WADESBORO      HVY RAIN N/A N/A N/A SE10      30.11F
ROCKINGHAM     RAIN      66  65  97 N3        30.12R
RUTHERFORDTON  CLOUDY    67  63  88 CALM      30.08S
ASHEVILLE      SUNNY     70  62  76 VRB3      30.07S

$$




USA.gov is the U.S. government's official web portal to all federal, state and local government web resources and services.